When you browse on this site, cookies collect data to enhance your experience and personalize the content and advertising you see.
Visit our Privacy Policy to learn more. By continuing to use the site, you agree to this use of cookies and data.
EN

Hourly Weather Montebello

Today, 4 August, Tuesday

Time Temperature Precipitation Wind Pressure Humidity
00:00 +12°C° 0.1 mm 1 mps 583 mmHg 91%
01:00 +12°C° 0 mm 1 mps 583 mmHg 90%
02:00 +12°C° 0 mm 1 mps 583 mmHg 91%
03:00 +11°C° 0 mm 0 mps 583 mmHg 92%
04:00 +11°C° 0 mm 0 mps 582 mmHg 93%
05:00 +11°C° 0 mm 0 mps 583 mmHg 92%
06:00 +12°C° 0 mm 0 mps 583 mmHg 90%
07:00 +12°C° 0 mm 0 mps 584 mmHg 89%
08:00 +15°C° 0 mm 0 mps 585 mmHg 77%
09:00 +20°C° 0 mm 1 mps 586 mmHg 66%
10:00 +22°C° 0 mm 1 mps 587 mmHg 55%
11:00 +23°C° 0.2 mm 1 mps 587 mmHg 53%
12:00 +24°C° 0.2 mm 1 mps 587 mmHg 51%
13:00 +25°C° 0.2 mm 1 mps 587 mmHg 50%
14:00 +25°C° 0.3 mm 1 mps 587 mmHg 50%
15:00 +24°C° 0.3 mm 1 mps 586 mmHg 51%
16:00 +24°C° 0.3 mm 1 mps 585 mmHg 52%
17:00 +21°C° 0.4 mm 1 mps 584 mmHg 64%
18:00 +18°C° 0.4 mm 1 mps 584 mmHg 76%
19:00 +15°C° 0.4 mm 1 mps 583 mmHg 88%
20:00 +14°C° 1.1 mm 1 mps 583 mmHg 90%
21:00 +13°C° 1.1 mm 1 mps 583 mmHg 92%
22:00 +13°C° 1.1 mm 1 mps 583 mmHg 94%
23:00 +12°C° 0.3 mm 1 mps 583 mmHg 94%

Tomorrow, 5 August, Wednesday

Time Temperature Precipitation Wind Pressure Humidity
00:00 +12°C° 0.3 mm 1 mps 583 mmHg 95%
01:00 +12°C° 0.3 mm 1 mps 583 mmHg 95%
02:00 +12°C° 0 mm 1 mps 582 mmHg 95%
03:00 +12°C° 0 mm 1 mps 582 mmHg 95%
04:00 +10°C° 0 mm 0 mps 582 mmHg 95%
05:00 +11°C° 0 mm 0 mps 582 mmHg 93%
06:00 +11°C° 0 mm 0 mps 583 mmHg 91%
07:00 +12°C° 0 mm 0 mps 583 mmHg 89%
08:00 +14°C° 0 mm 0 mps 584 mmHg 78%
09:00 +19°C° 0 mm 1 mps 586 mmHg 68%
10:00 +21°C° 0 mm 1 mps 587 mmHg 58%
11:00 +22°C° 0.3 mm 1 mps 587 mmHg 57%
12:00 +23°C° 0.3 mm 1 mps 586 mmHg 56%
13:00 +23°C° 0.3 mm 1 mps 586 mmHg 55%
14:00 +23°C° 0.7 mm 1 mps 585 mmHg 60%
15:00 +22°C° 0.7 mm 1 mps 585 mmHg 65%
16:00 +21°C° 0.7 mm 1 mps 584 mmHg 70%
17:00 +19°C° 1 mm 1 mps 583 mmHg 78%
18:00 +15°C° 1 mm 0 mps 583 mmHg 86%
19:00 +13°C° 1 mm 0 mps 582 mmHg 94%
20:00 +12°C° 0.3 mm 0 mps 583 mmHg 94%
21:00 +13°C° 0.3 mm 1 mps 583 mmHg 95%
22:00 +12°C° 0.3 mm 1 mps 583 mmHg 95%
23:00 +12°C° 0.1 mm 1 mps 583 mmHg 95%

Day after tomorrow, 6 August, Thursday

Time Temperature Precipitation Wind Pressure Humidity
00:00 +12°C° 0.1 mm 1 mps 582 mmHg 96%
01:00 +11°C° 0.1 mm 0 mps 582 mmHg 96%
02:00 +11°C° 0 mm 0 mps 582 mmHg 96%
03:00 +10°C° 0 mm 0 mps 582 mmHg 96%
04:00 +10°C° 0 mm 0 mps 582 mmHg 96%
05:00 +11°C° 0 mm 0 mps 582 mmHg 95%
06:00 +11°C° 0 mm 0 mps 582 mmHg 94%
07:00 +11°C° 0 mm 0 mps 583 mmHg 93%
08:00 +14°C° 0 mm 0 mps 584 mmHg 82%
09:00 +16°C° 0 mm 0 mps 585 mmHg 71%
10:00 +21°C° 0 mm 1 mps 587 mmHg 61%
11:00 +22°C° 0.2 mm 1 mps 586 mmHg 59%
12:00 +23°C° 0.2 mm 1 mps 586 mmHg 58%
13:00 +23°C° 0.2 mm 1 mps 586 mmHg 56%
14:00 +23°C° 0.8 mm 1 mps 585 mmHg 61%
15:00 +22°C° 0.8 mm 1 mps 585 mmHg 67%
16:00 +21°C° 0.8 mm 1 mps 584 mmHg 72%
17:00 +19°C° 0.7 mm 1 mps 583 mmHg 79%
18:00 +16°C° 0.7 mm 1 mps 583 mmHg 86%
19:00 +14°C° 0.7 mm 1 mps 582 mmHg 94%
20:00 +13°C° 0.3 mm 1 mps 583 mmHg 94%
21:00 +13°C° 0.3 mm 1 mps 583 mmHg 95%
22:00 +12°C° 0.3 mm 1 mps 583 mmHg 95%
23:00 +12°C° 0 mm 1 mps 583 mmHg 95%

7 August, Friday

Time Temperature Precipitation Wind Pressure Humidity
00:00 +12°C° 0 mm 1 mps 582 mmHg 95%
01:00 +12°C° 0 mm 1 mps 582 mmHg 95%
02:00 +11°C° 0 mm 1 mps 582 mmHg 95%
03:00 +11°C° 0 mm 1 mps 582 mmHg 95%
04:00 +10°C° 0 mm 0 mps 582 mmHg 95%
05:00 +11°C° 0 mm 0 mps 582 mmHg 94%
06:00 +11°C° 0 mm 0 mps 582 mmHg 93%
07:00 +11°C° 0 mm 0 mps 583 mmHg 92%
08:00 +15°C° 0 mm 1 mps 584 mmHg 80%
09:00 +19°C° 0 mm 1 mps 585 mmHg 68%
10:00 +21°C° 0 mm 1 mps 586 mmHg 56%
11:00 +23°C° 0 mm 1 mps 586 mmHg 51%
12:00 +24°C° 0 mm 1 mps 587 mmHg 46%
13:00 +25°C° 0 mm 2 mps 587 mmHg 41%
14:00 +25°C° 0 mm 1 mps 586 mmHg 43%
15:00 +25°C° 0 mm 1 mps 586 mmHg 44%
16:00 +24°C° 0 mm 1 mps 585 mmHg 46%
17:00 +22°C° 0 mm 1 mps 584 mmHg 57%
18:00 +19°C° 0 mm 1 mps 584 mmHg 67%
19:00 +15°C° 0 mm 1 mps 583 mmHg 78%
20:00 +14°C° 0.2 mm 1 mps 583 mmHg 81%
21:00 +14°C° 0.2 mm 1 mps 583 mmHg 85%
22:00 +13°C° 0.2 mm 1 mps 583 mmHg 88%
23:00 +13°C° 0 mm 1 mps 583 mmHg 89%

8 August, Saturday

Time Temperature Precipitation Wind Pressure Humidity
00:00 +12°C° 0 mm 1 mps 583 mmHg 90%
01:00 +12°C° 0 mm 1 mps 582 mmHg 91%
02:00 +12°C° 0 mm 1 mps 582 mmHg 91%
03:00 +12°C° 0 mm 1 mps 582 mmHg 92%
04:00 +10°C° 0 mm 0 mps 582 mmHg 92%
05:00 +11°C° 0 mm 0 mps 582 mmHg 90%
06:00 +11°C° 0 mm 0 mps 583 mmHg 89%
07:00 +12°C° 0 mm 0 mps 583 mmHg 87%
08:00 +15°C° 0 mm 0 mps 585 mmHg 76%
09:00 +19°C° 0 mm 1 mps 586 mmHg 65%
10:00 +22°C° 0 mm 1 mps 587 mmHg 55%
11:00 +23°C° 0.1 mm 1 mps 587 mmHg 51%
12:00 +24°C° 0.1 mm 1 mps 587 mmHg 47%
13:00 +26°C° 0.1 mm 1 mps 587 mmHg 43%
14:00 +25°C° 0.2 mm 1 mps 586 mmHg 46%
15:00 +25°C° 0.2 mm 1 mps 586 mmHg 48%
16:00 +24°C° 0.2 mm 1 mps 585 mmHg 51%
17:00 +21°C° 0.2 mm 1 mps 584 mmHg 62%
18:00 +19°C° 0.2 mm 1 mps 584 mmHg 74%
19:00 +15°C° 0.2 mm 1 mps 583 mmHg 85%
20:00 +14°C° 0.6 mm 1 mps 583 mmHg 88%
21:00 +14°C° 0.6 mm 1 mps 583 mmHg 91%
22:00 +13°C° 0.6 mm 1 mps 583 mmHg 94%
23:00 +13°C° 0.1 mm 1 mps 583 mmHg 94%

9 August, Sunday

Time Temperature Precipitation Wind Pressure Humidity
00:00 +12°C° 0.1 mm 1 mps 583 mmHg 94%
01:00 +11°C° 0.1 mm 0 mps 582 mmHg 94%
02:00 +11°C° 0 mm 0 mps 582 mmHg 94%
03:00 +11°C° 0 mm 0 mps 582 mmHg 94%
04:00 +10°C° 0 mm 0 mps 582 mmHg 93%
05:00 +11°C° 0 mm 0 mps 582 mmHg 91%
06:00 +12°C° 0 mm 0 mps 583 mmHg 89%
07:00 +12°C° 0 mm 0 mps 584 mmHg 87%
08:00 +15°C° 0 mm 0 mps 585 mmHg 77%
09:00 +19°C° 0 mm 1 mps 586 mmHg 67%
10:00 +22°C° 0 mm 1 mps 587 mmHg 57%
11:00 +23°C° 0.1 mm 1 mps 587 mmHg 54%
12:00 +24°C° 0.1 mm 1 mps 587 mmHg 52%
13:00 +25°C° 0.1 mm 1 mps 586 mmHg 49%
14:00 +24°C° 0.4 mm 1 mps 586 mmHg 51%
15:00 +24°C° 0.4 mm 1 mps 585 mmHg 53%
16:00 +24°C° 0.4 mm 1 mps 585 mmHg 54%
17:00 +21°C° 0.2 mm 1 mps 584 mmHg 66%
18:00 +18°C° 0.2 mm 1 mps 583 mmHg 77%
19:00 +15°C° 0.2 mm 1 mps 582 mmHg 88%
20:00 +14°C° 0.4 mm 1 mps 582 mmHg 90%
21:00 +13°C° 0.4 mm 1 mps 583 mmHg 91%
22:00 +13°C° 0.4 mm 1 mps 583 mmHg 93%
23:00 +13°C° 0 mm 1 mps 583 mmHg 93%
Show more